User: anonymous   Login
Location: Unspecified
(0.0000°N, 0.0000°E)
Time: 20:01:12
(UTC+00:00)
Language:

STRAND 1 - Orbit

View from above orbital plane
View from above orbital plane
View from above satellite
View from above satellite

Ground track
Ground track

The orbit data is extracted from the following two-line orbital elements,

1 39090U 13009E   17269.54546256  .00000025  00000-0  24040-4 0  9997
2 39090  98.5450 113.9908 0009395   7.0290 353.1025 14.34984607240011
Epoch (UTC): 26 September 2017 13:05:27
Eccentricity: 0.0009395
inclination: 98.5450°
perigee height: 768 km
apogee height: 782 km
right ascension of ascending node: 113.9908°
argument of perigee: 7.0290°
revolutions per day: 14.34984607
mean anomaly at epoch: 353.1025°
orbit number at epoch: 24001

The dashed part of the orbit path shows where the satellite is in the earth's shadow,  

DLR